Location: Gleizolles
(44.4833°N, 6.7667°E)
Time: 15:55:33
(UTC+00:00)

Tiros 1 - Pass Details

Date: 27 June 2024
Orbit: 624 x 656 km, 48.4° (Epoch: 13 July)

Event Time Altitude Azimuth Distance (km) Brightness Sun altitude
Rises 02:22:35 0° 291° (WNW) 2,911 10.3 -12.3°
Reaches altitude 10° 02:24:54 10° 292° (WNW) 2,006 9.5 -12.0°
Maximum altitude 02:29:32 85° 21° (NNE) 639 7.2 -11.5°
Drops below altitude 10° 02:34:11 10° 111° (ESE) 2,018 10.0 -10.9°
Sets 02:36:31 0° 112° (ESE) 2,930 10.8 -10.7°
